Denton, TX

6:56 AM CST on February 19, 2017 (GMT -0600)
Denton Municipal

Weather History for KDTO - September, 2013

Change the Weather History Date:

Sunday, September 22, 2013

  Actual Average Record
Temperature  
Mean Temperature 67 °F -  
Max Temperature 82 °F 84 °F 100 °F (2005)
Min Temperature 53 °F 60 °F 44 °F (1999)
Cooling Degree Days 2    
Growing Degree Days 17 (Base 50)    
Moisture  
Dew Point 51 °F    
Average Humidity 59    
Maximum Humidity 93    
Minimum Humidity 31    
Precipitation  
Precipitation 0.00 in - - ()
Sea Level Pressure  
Sea Level Pressure 29.86 in    
Wind  
Wind Speed 4 mph (East)    
Max Wind Speed 10 mph    
Max Gust Speed -    
Visibility 10 miles    
Events      
Averages and records for this station are not official NWS values.
T = Trace of Precipitation, MM = Missing Value Source: NWS Daily Summary

Daily Weather History Graph

Daily Weather History Graph

Search for Another Location

Airport or City:

Trip Planner

Search our weather history database for the weather conditions in past years. The results will help you decide how hot, cold, wet, or windy it might be!

Date:

Astronomy

Sep. 22, 2013 Rise Set
Actual Time 7:17 AM CDT 7:25 PM CDT
Civil Twilight 6:52 AM CDT 7:49 PM CDT
Nautical Twilight 6:23 AM CDT 8:18 PM CDT
Astronomical Twilight 5:54 AM CDT 8:47 PM CDT
Moon 9:28 PM CDT (9/22) 10:26 AM CDT (9/22)
Length of Visible Light 12h 57m
Length of Day
12h 07m
Waning Gibbous, 88% of the Moon is Illuminated
Sep 22
Waning Gibbous
Sep 26
Last Quarter
Oct 4
New
Oct 11
First Quarter
Oct 18
Full

Hourly Weather History & Observations

Time (CDT) Temp. Dew Point Humidity Pressure Visibility Wind Dir Wind Speed Gust Speed Precip Events Conditions
12:53 AM 59.0 °F 52.0 °F 78% 29.88 in 10.0 mi North 3.5 mph - N/A   Clear
1:53 AM 57.0 °F 52.0 °F 83% 29.89 in 10.0 mi Calm Calm - N/A   Clear
2:53 AM 57.0 °F 51.1 °F 81% 29.89 in 10.0 mi North 3.5 mph - N/A   Clear
3:53 AM 55.0 °F 51.1 °F 86% 29.88 in 10.0 mi NNW 4.6 mph - N/A   Clear
4:53 AM 54.0 °F 51.1 °F 90% 29.88 in 10.0 mi NNW 5.8 mph - N/A   Clear
5:53 AM 54.0 °F 51.1 °F 90% 29.88 in 10.0 mi North 3.5 mph - N/A   Clear
6:53 AM 53.1 °F 51.1 °F 93% 29.90 in 10.0 mi NNW 3.5 mph - N/A   Clear
7:53 AM 55.0 °F 52.0 °F 89% 29.91 in 10.0 mi North 3.5 mph - N/A   Clear
8:53 AM 63.0 °F 54.0 °F 72% 29.92 in 10.0 mi ENE 3.5 mph - N/A   Clear
9:53 AM 68.0 °F 53.1 °F 59% 29.94 in 10.0 mi ESE 4.6 mph - N/A   Clear
10:53 AM 73.0 °F 54.0 °F 51% 29.94 in 10.0 mi SSE 5.8 mph - N/A   Clear
11:53 AM 75.9 °F 51.1 °F 42% 29.92 in 10.0 mi Variable 4.6 mph - N/A   Clear
12:53 PM 78.1 °F 51.1 °F 39% 29.90 in 10.0 mi SSE 6.9 mph - N/A   Clear
1:53 PM 80.1 °F 48.9 °F 34% 29.88 in 10.0 mi East 10.4 mph - N/A   Clear
2:53 PM 80.1 °F 50.0 °F 35% 29.86 in 10.0 mi ENE 6.9 mph - N/A   Clear
3:53 PM 81.0 °F 50.0 °F 34% 29.82 in 10.0 mi South 5.8 mph - N/A   Clear
4:53 PM 81.0 °F 48.0 °F 31% 29.81 in 10.0 mi East 5.8 mph - N/A   Clear
5:53 PM 80.1 °F 48.9 °F 34% 29.81 in 10.0 mi Variable 3.5 mph - N/A   Clear
6:03 PM 80.6 °F 50.0 °F 34% 29.82 in 10.0 mi East 8.1 mph - N/A   Partly Cloudy
6:53 PM 78.1 °F 50.0 °F 37% 29.80 in 10.0 mi SE 5.8 mph - N/A   Clear
7:53 PM 73.9 °F 50.0 °F 43% 29.80 in 10.0 mi SE 3.5 mph - N/A   Clear
8:53 PM 71.1 °F 51.1 °F 49% 29.81 in 10.0 mi ESE 5.8 mph - N/A   Clear
9:53 PM 66.9 °F 53.1 °F 61% 29.81 in 10.0 mi ESE 4.6 mph - N/A   Clear
10:53 PM 66.0 °F 53.1 °F 63% 29.82 in 10.0 mi ESE 3.5 mph - N/A   Clear
11:53 PM 63.0 °F 53.1 °F 70% 29.83 in 10.0 mi Calm Calm - N/A   Clear